Tracking 32954 objects as of 19-Jan-2026
HD Live streaming from Space Station
objects crossing your sky now

FENGYUN 1C DEB

Track FENGYUN 1C DEB now!
10-day predictions


NORAD ID: 31092
Int'l Code: 1999-025BGN
Perigee: 848.5 km
Apogee: 1,335.3 km
Inclination: 99.7 °
Period: 106.9 minutes
Semi major axis: 7462 km
RCS: 0.0082 m2 (small)
Launch date: May 10, 1999
Source: People's Republic of China (PRC)
Launch site: Taiyaun Space Center, China (TSC)

Note: This is SATELLITE DEBRIS
Your satellite tracking list
Your tracking list is empty




NASA's NSSDC Master Catalog

Two Line Element Set (TLE):
1 31092U 99025BGN 26017.30213579  .00000678  00000-0  86374-3 0  9998
2 31092  99.7198 137.1546 0326116  49.0048 313.8808 13.46606789923602
Source of the keplerian elements: AFSPC